GFSNW_925_rhum_045.txt.gz
RH
95 94 94 95 91 88 76 92 93 78 90 99 90 95 76 62 53 48 49 46 50 54 47 50 52 64 55 46 50 61 51 78 99 87 76 75 75 82 74 91 80 76 82 57
95 95 95 95 93 90 91 99 87 76 81 94 79 58 62 58 55 51 50 46 45 46 49 54 57 60 47 47 52 53 55 80 97 98 72 77 98 83 77 76 76 81 77 56
95 95 95 94 66 55 79 97 95 82 92 82 68 66 59 65 57 57 45 47 44 46 49 41 58 64 52 47 50 47 47 72 76 83 73 77 85 77 73 84 96 74 73 44
95 95 95 86 57 46 67 92 83 80 95 82 78 71 62 58 68 58 49 51 49 52 52 46 56 62 61 52 53 48 60 80 68 61 65 72 71 71 69 96 70 81 59 47
96 96 96 92 66 38 47 90 91 82 85 75 76 71 76 74 67 61 60 56 52 48 59 54 51 60 60 61 59 55 66 92 83 80 61 67 73 70 68 67 62 66 65 65
95 93 95 95 75 63 66 70 73 90 80 67 73 72 72 70 68 61 60 60 61 49 64 58 50 44 47 52 65 67 74 88 92 88 64 66 79 73 66 63 61 59 71 51
96 92 86 81 86 79 74 77 86 86 76 45 55 50 47 56 62 75 70 65 59 54 49 46 43 45 47 51 57 56 80 82 91 93 78 94 52 50 56 56 54 56 54 51
81 77 84 78 76 77 80 79 89 90 84 59 44 41 43 59 72 73 69 78 75 74 59 62 68 69 60 54 51 52 58 70 85 87 82 66 58 59 58 65 63 52 52 50
78 81 85 88 81 79 78 84 72 89 91 73 46 52 55 70 87 83 76 65 64 66 81 78 76 78 68 75 67 52 53 57 75 85 80 90 63 48 44 49 82 51 46 49
82 80 84 89 89 96 88 91 84 83 92 70 58 67 69 61 61 66 78 62 78 74 90 84 81 71 54 81 79 82 75 74 89 87 87 69 48 51 48 84 70 55 50 50
77 76 80 81 79 84 88 92 92 92 96 87 59 64 66 62 59 64 65 75 85 93 94 89 88 80 66 60 60 77 83 88 91 84 83 87 56 61 73 64 60 61 62 64
83 78 81 85 84 96 96 91 97 99 97 87 68 69 69 68 61 72 67 70 64 100 100 100 98 83 68 69 75 57 73 68 78 72 71 50 60 55 54 59 65 60 61 62
87 84 89 86 90 96 95 97 91 97 97 90 75 67 64 60 63 66 73 76 84 97 97 100 100 100 91 78 75 62 54 54 62 56 49 51 49 57 55 52 58 61 62 63
87 79 84 91 85 87 94 89 95 96 94 95 74 58 63 61 64 68 70 71 77 84 93 93 94 98 93 95 81 70 63 60 63 65 57 54 50 57 61 62 63 63 62 63
78 80 87 93 85 89 83 81 82 90 94 97 90 70 60 60 62 71 74 73 75 80 90 99 93 88 96 93 98 79 64 63 71 73 57 54 53 54 64 69 71 69 64 62
80 86 92 83 72 68 93 93 72 78 86 96 98 69 60 60 70 60 65 66 72 80 86 87 82 71 85 99 93 65 53 59 55 56 58 64 75 71 64 72 70 63 62 61
85 86 82 73 78 81 84 89 81 88 88 98 97 91 66 69 69 73 76 67 81 84 90 90 80 73 85 95 83 52 49 71 79 67 70 71 67 75 69 67 64 62 62 64
82 78 72 82 82 89 89 87 91 95 97 93 97 92 90 73 88 87 78 83 88 91 93 88 85 77 81 92 59 48 47 82 76 67 68 72 71 70 72 72 72 75 77 76
79 73 83 84 80 86 91 86 94 98 99 99 97 100 99 95 92 97 89 80 95 83 97 88 80 84 90 68 67 55 40 95 94 78 69 72 74 82 82 79 82 83 86 85
78 74 77 95 84 78 81 100 100 98 99 99 95 96 97 96 95 100 97 96 97 99 87 81 84 89 59 61 68 67 79 84 90 80 87 91 97 87 84 87 89 90 91 86
83 88 89 82 83 92 93 93 94 95 97 98 96 99 96 80 97 97 98 98 98 99 93 91 98 99 98 84 85 78 87 86 77 76 80 83 84 90 91 90 89 88 88 87
82 86 85 87 87 94 92 99 91 95 98 95 97 93 86 88 94 100 98 98 99 98 98 99 99 100 100 100 81 85 77 83 75 77 86 87 85 87 88 88 90 94 94 88
84 83 89 89 91 73 80 87 85 92 96 96 97 92 86 85 98 100 100 100 94 99 100 99 100 94 82 100 100 100 96 91 94 82 78 81 82 76 77 84 86 84 90 84
94 80 50 82 94 88 93 91 93 91 98 98 96 98 95 86 98 100 100 98 99 98 98 99 99 99 82 78 96 79 96 99 100 99 84 78 77 76 75 74 73 72 75 89
93 82 59 85 86 96 98 98 96 93 96 99 98 97 96 96 99 98 99 99 98 98 97 98 98 98 100 78 73 78 75 78 97 86 95 76 74 75 76 75 79 78 76 77
93 92 77 90 90 94 99 100 99 96 91 97 97 95 98 92 99 98 98 98 97 98 98 99 97 99 99 99 74 67 59 66 75 74 74 75 74 71 62 60 54 82 84 80
87 86 93 96 98 95 96 88 84 81 92 96 87 90 90 96 99 99 97 98 97 99 98 97 99 99 87 70 73 69 56 64 84 92 91 92 92 60 48 56 60 76 82 83

GFSNW_925_rhum_048.txt.gz
RH
95 96 95 95 94 93 78 88 95 87 86 99 98 96 81 58 55 50 55 48 53 56 50 55 63 72 61 68 64 70 57 86 94 93 81 79 81 84 71 90 88 82 83 63
96 96 96 95 94 85 82 96 90 92 92 99 88 65 62 61 58 55 55 49 48 48 53 62 64 61 52 52 53 65 58 84 98 93 78 78 97 93 75 76 78 84 80 57
96 96 96 85 66 44 77 92 93 82 96 82 81 80 64 66 58 57 47 49 46 48 52 46 64 64 57 50 50 49 55 74 76 82 70 82 99 93 82 86 98 73 81 53
96 94 95 82 53 34 68 93 92 85 94 74 75 76 74 66 75 59 50 53 51 53 56 50 65 66 61 55 53 52 57 80 72 64 65 72 74 81 83 93 73 81 59 59
96 94 95 72 53 40 54 90 92 90 91 82 74 77 78 82 68 62 64 58 63 50 67 56 59 64 64 61 59 57 70 89 80 79 60 69 74 72 81 77 78 77 64 67
94 86 84 91 69 50 71 80 80 93 82 56 70 62 59 65 69 70 68 71 65 67 67 60 54 52 52 54 65 70 74 89 89 85 71 66 76 72 71 71 68 75 77 54
88 79 88 85 80 72 71 84 89 75 70 64 62 42 44 55 61 74 71 78 61 67 69 50 46 52 58 58 57 65 82 82 89 93 75 91 54 50 57 58 56 58 58 53
82 86 86 84 80 76 79 75 84 92 81 70 53 56 56 63 68 79 72 78 71 78 64 69 70 73 60 57 60 61 65 80 91 93 96 67 51 60 64 67 62 52 59 56
83 79 84 88 92 78 82 86 79 88 91 85 62 66 61 75 69 76 76 64 53 71 86 83 80 89 72 75 66 56 58 59 75 88 77 93 54 53 50 54 81 56 52 56
73 74 80 89 82 78 80 90 87 82 91 81 69 74 70 61 64 64 70 58 73 79 92 88 87 77 63 83 82 80 74 74 86 88 94 76 52 48 48 77 66 61 52 56
77 68 80 85 92 85 74 90 91 85 94 91 68 70 78 77 65 72 66 78 82 95 95 92 87 83 69 69 68 78 83 84 93 88 94 84 48 60 68 62 62 63 62 58
81 84 88 87 94 96 88 89 90 96 94 86 80 75 68 73 67 75 73 80 79 100 100 99 98 96 79 73 76 67 76 71 82 76 74 47 48 58 58 64 63 60 60 68
85 84 88 88 92 95 89 90 96 93 93 86 73 63 60 62 64 66 76 84 84 87 94 96 98 100 93 94 79 65 59 61 66 63 53 56 51 55 57 58 60 60 59 65
79 77 80 86 94 93 84 87 95 96 94 97 78 63 64 61 65 76 71 73 79 85 93 92 93 97 91 90 93 87 68 60 64 69 60 59 57 56 60 59 63 65 65 65
73 74 85 92 86 96 79 80 88 88 85 96 91 71 59 60 64 72 78 79 81 94 90 98 96 89 96 92 97 96 68 69 71 70 56 54 50 50 62 71 70 71 70 69
74 81 87 78 76 86 94 92 80 82 83 95 96 72 65 59 70 66 72 75 76 82 87 90 85 73 92 99 91 72 50 66 81 85 72 66 69 69 68 72 76 68 67 62
76 78 75 76 80 82 83 90 87 90 84 96 95 92 69 70 71 76 78 71 82 84 87 93 84 76 88 95 92 52 48 44 62 77 80 79 74 74 74 72 70 65 66 68
70 71 72 78 85 90 84 84 92 94 89 86 95 91 87 79 91 93 81 85 90 90 92 90 92 79 78 91 63 56 52 48 44 59 87 82 75 75 78 76 74 77 81 81
65 71 78 84 79 79 82 94 96 93 95 97 96 100 97 94 91 96 94 82 95 84 96 91 86 83 92 63 56 60 56 59 78 92 94 83 81 87 85 83 83 84 86 87
69 68 72 93 83 84 85 98 94 85 87 98 94 98 99 94 95 98 98 97 98 100 87 85 88 89 62 71 91 63 75 89 96 100 97 94 97 89 86 90 92 92 92 88
72 84 94 78 88 92 85 87 92 89 91 93 95 98 91 82 96 96 93 97 98 98 92 87 98 98 100 99 97 81 89 90 87 95 93 87 81 90 94 94 89 90 89 88
69 73 84 83 88 93 90 100 88 94 92 93 94 94 93 92 93 100 94 99 96 94 95 97 98 100 97 99 100 99 96 87 88 82 88 87 86 87 87 87 90 92 91 82
70 76 84 83 86 56 57 63 74 82 92 96 97 93 91 88 94 99 100 100 96 98 99 99 99 98 96 98 100 100 100 98 98 99 98 96 80 78 81 86 78 84 90 93
86 71 53 75 81 80 91 86 86 87 100 97 95 88 99 92 99 97 99 85 100 98 96 99 96 97 96 97 100 100 100 100 100 100 98 99 80 81 77 77 76 74 77 83
93 76 51 86 83 96 99 97 98 92 98 100 96 87 96 93 100 95 99 99 97 97 96 93 95 97 98 98 100 99 99 100 100 97 99 99 90 77 80 77 75 81 79 76
89 91 76 91 86 89 100 98 99 96 93 97 94 79 92 87 99 99 97 96 93 90 99 98 98 98 97 98 100 95 61 72 88 98 99 98 91 82 56 54 55 82 83 83
79 86 94 97 98 93 95 94 88 86 91 92 97 99 87 92 95 99 96 93 92 98 98 97 95 98 97 99 95 78 60 77 94 99 99 98 97 91 53 51 60 74 78 80

GFSNW_925_rhum_051.txt.gz
RH
94 96 96 96 95 86 66 85 96 92 89 99 96 98 84 60 57 52 57 50 54 56 62 75 74 91 73 71 73 80 68 82 91 86 79 75 83 86 87 90 93 89 86 74
84 92 94 93 95 82 79 93 92 90 97 97 93 77 63 62 62 58 57 53 51 49 54 71 66 64 60 70 66 69 67 87 97 97 90 83 98 88 83 74 81 87 89 67
83 65 66 63 75 41 84 90 91 83 97 89 80 86 78 64 60 60 51 54 49 50 53 59 68 67 58 53 52 56 54 77 76 84 71 86 97 89 92 95 98 81 75 61
83 67 60 56 57 42 70 93 94 86 93 80 80 76 82 74 73 60 59 58 62 57 57 57 72 68 61 56 54 63 59 82 78 69 64 79 86 89 81 98 93 87 64 66
75 71 61 54 54 48 58 79 76 89 86 79 76 74 91 83 79 71 68 67 74 54 68 63 66 68 65 60 60 62 70 89 80 82 61 77 78 77 86 79 79 82 75 76
70 70 68 66 62 51 73 84 85 92 71 60 71 56 62 64 66 72 68 78 76 72 70 69 64 56 55 54 66 72 73 89 88 83 78 66 77 70 72 79 79 78 88 65
71 71 74 69 73 73 73 90 88 65 65 67 57 56 56 61 70 82 71 85 76 75 79 68 50 57 62 60 64 69 78 80 86 92 76 87 54 49 58 65 56 71 74 62
70 72 75 71 73 81 81 86 86 83 83 78 65 70 65 62 64 78 77 75 59 59 72 68 70 78 62 58 62 70 66 83 93 92 97 69 46 62 65 66 61 56 60 59
69 72 71 70 74 77 83 88 86 87 84 87 70 75 66 81 75 67 74 58 48 74 87 83 78 91 70 76 69 58 63 65 76 92 77 92 53 58 52 53 82 56 59 56
72 73 73 72 75 74 80 88 88 80 89 81 75 79 77 66 73 71 69 63 70 79 88 96 91 83 65 83 77 83 81 79 92 86 95 83 55 49 50 78 61 68 64 60
82 80 79 78 85 85 76 86 82 85 92 88 77 76 78 80 73 76 69 84 82 95 94 96 88 90 74 73 70 77 83 87 92 89 95 90 47 59 67 60 66 64 66 57
85 86 85 80 81 84 81 87 95 86 88 84 86 77 72 73 70 76 77 86 92 98 100 98 97 87 92 77 78 71 79 71 81 81 76 50 46 61 55 64 70 60 61 67
86 77 78 84 91 83 78 92 93 80 91 79 71 67 63 64 65 68 76 90 84 84 92 94 96 99 90 93 87 72 60 62 70 67 55 60 54 51 64 58 63 59 59 68
78 77 80 88 80 80 71 83 87 97 88 94 75 64 64 64 68 73 75 79 81 84 93 91 93 93 84 87 90 93 74 69 69 74 62 61 56 59 54 61 61 64 63 63
73 81 83 80 75 75 66 78 85 91 85 94 84 70 61 60 65 73 77 83 84 90 93 98 93 89 94 90 93 97 71 67 82 78 82 89 73 62 64 67 70 72 70 70
78 76 71 68 69 74 74 88 82 91 89 93 88 74 66 61 70 70 77 80 81 84 85 88 87 77 94 96 93 67 66 72 76 87 87 68 65 75 73 73 73 75 74 70
78 68 68 68 73 73 79 93 97 95 88 94 89 91 72 73 73 79 81 74 85 84 89 93 88 79 92 94 94 53 51 49 45 42 57 58 76 87 82 78 74 70 70 70
70 66 66 68 72 76 78 93 90 85 89 84 94 88 88 83 94 93 82 87 91 89 92 91 95 82 80 87 68 56 54 57 56 56 73 90 90 83 79 76 76 78 82 82
72 70 64 64 64 75 77 88 87 91 91 96 95 99 97 89 92 98 94 86 96 86 94 91 85 83 92 64 85 92 96 90 68 84 92 92 96 83 89 84 81 84 88 87
70 64 65 88 82 81 84 98 86 91 85 96 94 94 98 95 91 97 98 96 93 100 84 87 88 87 69 82 98 99 97 93 96 100 97 97 100 98 93 92 92 91 92 89
67 82 92 86 90 87 83 88 92 94 89 86 87 93 90 82 97 94 94 97 96 99 90 85 97 97 96 95 96 100 99 97 90 94 99 100 98 98 96 97 91 92 91 90
57 67 81 86 89 89 78 99 86 89 81 93 92 92 94 95 93 100 99 99 99 96 89 96 97 93 97 97 96 97 98 100 98 97 100 100 96 86 89 89 92 92 87 84
55 66 81 77 83 50 42 42 69 75 90 97 98 95 93 89 91 96 100 97 95 99 98 97 96 93 95 97 97 97 97 96 99 99 97 98 98 91 83 77 76 81 83 93
80 69 48 64 73 71 85 78 81 83 98 99 94 94 95 95 98 93 98 86 100 97 95 90 95 98 97 96 98 98 99 100 100 99 99 98 99 91 80 86 81 76 79 78
88 71 39 85 83 98 98 98 97 94 98 99 96 94 91 88 96 93 97 95 95 92 89 91 93 98 96 91 96 99 97 87 99 97 99 99 99 95 82 66 59 83 80 78
86 89 78 93 86 89 98 100 99 95 94 97 92 91 88 74 97 85 94 100 94 87 96 96 96 94 94 93 90 97 94 66 86 98 99 99 99 98 96 62 54 76 82 82
75 88 94 93 97 90 97 97 88 88 88 85 96 100 84 91 94 94 91 96 89 96 99 98 92 92 84 79 85 95 89 64 80 95 99 99 98 98 97 74 50 65 71 72

GFSNW_925_rhum_054.txt.gz
RH
78 77 96 95 93 46 63 82 97 86 89 100 97 98 87 64 59 55 57 50 55 60 84 90 96 86 79 70 75 73 70 82 92 88 81 78 79 86 81 91 87 92 88 65
72 59 73 89 59 41 73 93 96 93 97 97 91 82 69 64 63 60 58 55 54 51 57 73 69 66 67 74 64 70 70 88 98 96 82 84 91 86 79 80 85 93 91 73
61 59 58 54 50 47 74 89 93 83 97 93 84 86 87 68 62 60 53 55 51 52 57 66 72 69 62 56 57 70 60 81 77 84 70 85 96 79 76 87 98 83 77 66
58 59 60 58 47 41 51 92 93 87 95 86 80 81 83 86 86 68 61 61 74 60 59 63 74 69 63 60 70 76 70 94 78 69 62 84 89 87 86 96 82 88 62 64
61 64 62 60 48 44 61 74 72 89 82 73 76 64 86 78 73 82 79 82 81 60 73 71 66 68 66 63 60 71 71 92 79 82 68 83 85 83 89 83 81 84 81 84
62 72 68 70 52 44 74 90 90 87 67 66 69 53 55 65 72 74 71 81 78 76 86 86 70 66 59 57 67 75 73 90 88 80 76 71 84 76 80 81 82 72 85 63
66 74 74 86 63 54 66 91 85 64 66 63 57 67 59 64 74 84 73 80 76 77 68 79 62 61 66 64 69 70 79 80 84 88 76 74 46 47 58 68 63 73 76 67
68 70 74 75 68 68 69 89 84 78 85 78 70 73 70 64 64 75 84 76 57 57 74 67 70 77 64 62 63 69 66 80 93 90 95 67 44 62 65 66 62 57 63 60
69 68 71 70 69 73 70 86 82 85 84 90 78 78 71 81 78 72 72 61 49 79 85 83 77 88 72 78 73 65 64 69 76 92 86 85 49 58 54 54 78 54 63 68
70 74 70 74 76 69 70 87 75 74 91 84 80 86 82 74 78 76 76 62 74 80 85 92 93 87 65 82 72 83 83 81 92 89 89 82 59 52 51 76 58 63 67 72
75 78 74 79 78 71 68 96 82 78 94 86 82 78 78 81 78 77 70 87 82 96 91 95 94 92 81 77 69 77 84 90 94 91 93 92 50 59 67 56 65 67 70 67
84 87 79 80 81 69 74 95 82 78 85 86 87 78 74 74 74 80 80 90 95 94 99 94 92 79 96 84 80 68 82 73 78 81 77 52 46 59 55 65 73 68 66 66
90 88 80 92 85 70 70 85 79 74 88 74 71 71 64 64 67 72 75 92 88 85 91 92 94 96 98 87 90 91 64 65 78 69 56 59 60 59 59 68 71 70 63 65
90 96 88 89 81 67 68 79 89 78 89 90 74 66 65 67 70 75 75 80 82 84 93 95 91 88 88 88 91 90 81 82 78 80 65 78 61 67 72 57 71 75 70 63
89 95 92 84 69 68 70 79 87 82 76 91 77 70 63 62 67 73 79 81 87 92 95 98 95 87 91 88 86 91 76 77 86 90 94 87 74 53 44 76 82 75 79 70
93 90 79 72 63 61 67 92 87 85 80 89 86 74 68 64 71 71 81 87 85 88 90 91 87 78 91 88 82 62 58 58 64 60 52 57 54 52 54 88 73 80 82 77
79 73 72 69 73 73 75 82 87 89 78 89 88 90 72 77 76 82 84 78 89 86 91 90 88 79 90 95 88 54 59 56 66 75 62 64 53 62 81 85 76 78 73 73
80 82 74 65 66 72 87 92 88 82 81 82 91 84 90 91 96 91 86 90 91 89 94 91 93 82 82 84 67 60 75 85 85 78 70 78 80 84 78 86 82 81 82 82
96 98 83 69 65 75 88 88 85 81 79 93 95 98 95 84 92 97 94 90 92 89 92 91 85 84 93 86 82 95 95 98 96 96 96 94 97 97 93 88 88 92 90 87
97 82 64 88 90 85 89 88 86 92 95 94 98 94 96 90 92 92 99 96 96 100 84 87 85 86 69 67 93 93 90 96 97 98 97 97 97 97 96 90 95 96 95 90
81 79 94 96 95 82 88 95 91 93 86 91 87 88 94 83 98 98 91 99 98 97 96 94 96 94 84 85 91 84 88 95 96 99 98 100 100 99 100 99 99 99 96 90
62 74 89 88 85 86 65 94 82 83 68 94 96 90 92 93 93 96 99 100 98 96 96 97 96 92 94 92 92 88 88 92 93 97 99 98 98 97 100 100 100 98 100 94
59 67 78 74 84 47 33 31 69 69 91 97 98 87 94 91 94 94 99 99 97 98 98 93 89 93 90 86 89 88 92 92 94 96 98 98 97 99 99 91 86 78 80 84
76 65 51 63 66 62 76 70 78 82 96 100 99 98 95 96 99 92 95 84 99 99 99 92 94 94 93 92 89 86 87 94 90 95 98 99 98 98 96 80 83 90 85 83
79 66 38 76 87 99 95 96 96 96 98 99 97 95 92 92 85 92 89 76 98 94 87 92 91 92 92 91 85 85 85 89 92 90 98 99 98 98 91 79 72 96 93 85
85 85 82 92 89 99 99 97 99 96 96 96 92 95 95 88 92 80 83 89 96 84 95 94 96 92 87 85 84 80 81 90 87 77 94 100 99 99 98 94 56 73 77 79
78 92 88 90 92 87 96 98 87 89 88 82 95 69 60 82 93 90 82 89 88 97 97 99 91 90 88 83 81 78 83 91 86 74 86 99 99 98 98 97 92 80 87 72